Location: Palo Alto
(37.4420°N, 122.1420°W)
Time: 09:40:18
(UTC-07:00)

X-37B - Pass Details

Date: 11 August 2020
Orbit: 386 x 387 km, 45.0° (Epoch: 18 September)

Event Time Altitude Azimuth Distance (km) Brightness Sun altitude
Rises 21:45:25 0° 288° (WNW) 2,263 5.8 -18.4°
Reaches altitude 10° 21:47:50 10° 306° (NW) 1,409 4.7 -18.8°
Maximum altitude 21:50:17 20° 357° (N) 958 3.0 -19.2°
Enters shadow 21:52:03 14° 38° (NE) 1,214 3.1 -19.5°
